sat.trackr.live / text

‹ back to catalog

STARLINK-3973

NORAD 52645 · 2022-052AZ

PAYLOAD ACTIVE UNKNOWN

§ Identity

Operator
Country
US
Launch date
2022-05-14
Launch site
AFETR
Launch vehicle
Mass (kg)
RCS (m²)

Purposes: comms

External: N2YO · Heavens-Above · Gunter

§ Orbital elements

Epoch: 2026-05-25T02:22:07.646304Z

Period
95.44 min
Inclination
53.2125°
Eccentricity
0.0001399
Mean motion
15.08842507 rev/d
Perigee alt
538.8 km
Apogee alt
540.7 km
Semi-major
6,917.9 km
B*
-5.1814e-5
RAAN
276.2139°
Arg perigee
84.7983°
Mean anomaly
275.3169°
Rev number
22,266

§ Raw data

STARLINK-39731 52645U 22052AZ  26145.09869961 -.00001113  00000+0 -51814-4 0  99992 52645  53.2125 276.2139 0001399  84.7983 275.3169 15.08842507222664

JSON: /api/v1/satellites/52645 · /tle

For live sub-satellite position, see the globe view (requires WebGL).

§ Visibility from observer

Set your observer location to see the next 7 days of passes ≥ 10°. The values pass through the URL so the page stays shareable.

No JS? Fill the form by hand. The geolocation button needs JavaScript.